Weather History for Moses Lake, WA

Change the Weather History Date:

Friday, April 26, 2013

  Actual Average Record
Temperature  
Mean Temperature 65 °F 53 °F  
Max Temperature 84 °F 67 °F 84 °F (2013)
Min Temperature 46 °F 39 °F 26 °F (2008)
Degree Days  
Heating Degree Days 0 12  
Month to date heating degree days 340 398  
Since 1 July heating degree days 5071 5570  
Cooling Degree Days 0 0  
Month to date cooling degree days 0 0  
Year to date cooling degree days 0 0  
Growing Degree Days 14 (Base 50)    
Moisture  
Dew Point 33 °F    
Average Humidity 42    
Maximum Humidity 71    
Minimum Humidity 12    
Precipitation  
Precipitation 0.00 in 0.03 in 0.40 in (2012)
Month to date precipitation 0.36 0.62  
Year to date precipitation 1.38 3.34  
Sea Level Pressure  
Sea Level Pressure 30.10 in    
Wind  
Wind Speed 7 mph (SW)    
Max Wind Speed 15 mph    
Max Gust Speed 20 mph    
Visibility 10 miles    
Events      
T = Trace of Precipitation, MM = Missing Value Source: NWS Daily Summary

Daily Weather History Graph

Daily Weather History Graph

Search for Another Location

Airport:

Trip Planner

Search our weather history database for the weather conditions in past years. The results will help you decide how hot, cold, wet, or windy it might be!

Date:

Astronomy

Apr. 26, 2013 Rise Set
Actual Time 5:48 AM PDT 8:02 PM PDT
Civil Twilight 5:15 AM PDT 8:35 PM PDT
Nautical Twilight 4:33 AM PDT 9:17 PM PDT
Astronomical Twilight 3:47 AM PDT 10:04 PM PDT
Moon 9:36 PM PDT (4/26) 6:16 AM PDT (4/26)
Length of Visible Light 15h 20m
Length of Day
14h 13m
Full, 99% of the Moon is Illuminated
Apr 26
Full
May 2
Last Quarter
May 9
New
May 17
First Quarter
May 24
Full

Hourly Weather History & Observations

Time (PDT) Temp. Dew Point Humidity Pressure Visibility Wind Dir Wind Speed Gust Speed Precip Events Conditions
12:52 AM 52.0 °F 36.0 °F 54% 30.04 in 10.0 mi ESE 4.6 mph - N/A   Clear
1:52 AM 54.0 °F 36.0 °F 51% 30.05 in 10.0 mi SSE 4.6 mph - N/A   Clear
2:52 AM 52.0 °F 37.0 °F 57% 30.06 in 10.0 mi Calm Calm - N/A   Clear
3:52 AM 50.0 °F 37.0 °F 61% 30.07 in 10.0 mi Calm Calm - N/A   Clear
4:52 AM 51.1 °F 37.9 °F 61% 30.08 in 10.0 mi South 6.9 mph - N/A   Clear
5:52 AM 46.9 °F 37.0 °F 68% 30.11 in 10.0 mi SSE 4.6 mph - N/A   Clear
6:52 AM 48.9 °F 37.9 °F 66% 30.11 in 10.0 mi ESE 5.8 mph - N/A   Clear
7:52 AM 55.9 °F 41.0 °F 57% 30.13 in 10.0 mi East 3.5 mph - N/A   Clear
8:52 AM 61.0 °F 41.0 °F 48% 30.14 in 10.0 mi SE 5.8 mph - N/A   Clear
9:52 AM 66.9 °F 39.9 °F 37% 30.14 in 10.0 mi SSW 6.9 mph - N/A   Clear
10:52 AM 72.0 °F 39.0 °F 30% 30.14 in 10.0 mi South 6.9 mph - N/A   Clear
11:52 AM 75.0 °F 36.0 °F 24% 30.14 in 10.0 mi SW 6.9 mph 16.1 mph N/A   Clear
12:52 PM 77.0 °F 36.0 °F 23% 30.12 in 10.0 mi SW 6.9 mph - N/A   Clear
1:52 PM 81.0 °F 35.1 °F 19% 30.11 in 10.0 mi West 8.1 mph - N/A   Clear
2:52 PM 82.9 °F 25.0 °F 12% 30.10 in 10.0 mi SW 13.8 mph 17.3 mph N/A   Clear
3:52 PM 82.0 °F 26.1 °F 13% 30.09 in 10.0 mi West 9.2 mph - N/A   Clear
4:52 PM 82.9 °F 26.1 °F 13% 30.08 in 10.0 mi NW 10.4 mph - N/A   Clear
5:52 PM 82.9 °F 27.0 °F 13% 30.08 in 10.0 mi NW 8.1 mph - N/A   Clear
6:52 PM 80.1 °F 27.0 °F 14% 30.07 in 10.0 mi NW 9.2 mph - N/A   Clear
7:52 PM 73.0 °F 28.9 °F 20% 30.07 in 10.0 mi West 9.2 mph - N/A   Clear
8:52 PM 68.0 °F 30.9 °F 25% 30.09 in 10.0 mi West 8.1 mph - N/A   Clear
9:52 PM 66.9 °F 27.0 °F 22% 30.10 in 10.0 mi West 12.7 mph - N/A   Clear
10:52 PM 64.0 °F 26.1 °F 24% 30.10 in 10.0 mi West 9.2 mph - N/A   Clear
11:52 PM 64.0 °F 24.1 °F 22% 30.10 in 10.0 mi West 6.9 mph - N/A   Clear